Regional Weather Roundup
Issued by NWS Charleston, WV

Home | Current Version | Previous Version | Text Only | Print | Product List | Glossary On
Versions: 1 2 3 4 5 6 7 8 9 10 11 12 13 14 15 16 17 18 19 20 21 22 23 24 25 26 27 28 29 30 31 32 33 34 35 36 37 38 39 40 41 42 43 44 45 46 47 48 49 50
000
ASUS41 KRLX 240210
RWRRLX
West Virginia Regional Weather Roundup
National Weather Service Charleston WV
1000 PM EDT FRI JUN 23 2017

Note: "fair" indicates few or no clouds below 12,000 feet with no
significant weather and/or obstructions to visibility.

WVZ003-240300-
Northern Panhandle of West Virginia

CITY           SKY/WX    TMP DP  RH WIND       PRES   REMARKS
WHEELING       LGT RAIN  68  66  93 SW3       29.73R
$$

WVZ009-240300-
Northwest West Virginia

CITY           SKY/WX    TMP DP  RH WIND       PRES   REMARKS
PARKERSBURG    RAIN      67  66  97 E3        29.73F FOG
$$

WVZ006-240300-
Western West Virginia

CITY           SKY/WX    TMP DP  RH WIND       PRES   REMARKS
HUNTINGTON     RAIN      67  65  93 CALM      29.78R VSB 1
$$

WVZ015-240300-
West Central West Virginia

CITY           SKY/WX    TMP DP  RH WIND       PRES   REMARKS
CHARLESTON     HVY RAIN  67  64  90 N13G21    29.73R FOG
$$

WVZ022-031-240300-
North Central West Virginia

CITY           SKY/WX    TMP DP  RH WIND       PRES   REMARKS
CLARKSBURG     RAIN      69  67  93 NW3       29.73S FOG
MORGANTOWN     RAIN      68  66  93 VRB5      29.75R FOG
$$

WVZ025-035-042-045-240300-
Southern West Virginia

CITY           SKY/WX    TMP DP  RH WIND       PRES   REMARKS
BECKLEY        RAIN      71  65  81 S8        29.79S
LOGAN          DRIZZLE   72  70  94 CALM      29.74S
BLUEFIELD      CLOUDY    74  61  63 SW15G28   29.84R
LEWISBURG      DRIZZLE   75  65  71 S8        29.80S
$$

WVZ047-240300-
Northern Mountains of West Virginia

CITY           SKY/WX    TMP DP  RH WIND       PRES   REMARKS
ELKINS         LGT RAIN  70  67  90 CALM      29.76F
$$

WVZ052-240300-
Eastern Panhandle of West Virginia

CITY           SKY/WX    TMP DP  RH WIND       PRES   REMARKS
MARTINSBURG    CLOUDY    81  69  67 NE3       29.69R
PETERSBURG     CLOUDY    81  68  65 SE3       29.70F
$$



USA.gov is the U.S. government's official web portal to all federal, state and local government web resources and services.